Voltar ao catálogo

FENGYUN 1C DEB

AtivoPO
NORAD 37908·DEBRIS·🇨🇳 China

Lançado May 10, 1999 de Taiyuan Satellite Launch Center

Loading…

Próximas Passagens (próximas 24 horas)

TLE

EnvelhecendoSource: Space-Track

Época: Sep 10, 2026, 08:53 UTC

1 37908U 99025ENH 26253.37082822  .00000779  00000-0  26913-3 0  9999
2 37908  99.1204 306.8816 0074730  84.2662 276.7037 14.37293966679627

Acompanhe FENGYUN 1C DEB em tempo real com AllMySat

Download on the App Store